This demonstration page uses our WeatherBlox Daily Observations layout. Learn more.

Left ArrowRight Arrow

53.62937, 11.41316

Hourly Observations for June 26, 2022

Temp ( °F °C ) Dew Point ( °F °C ) Humidity (%) Winds ( mph kmh ) Pressure ( in mb ) Visibility ( mi km ) Precip ( " mm )
12:20 am 00:20 Mostly Clear 64 18 64 18 100 100 Calm 29.91 1013 2 3 N/A
12:50 am 00:50 Mostly Clear 64 18 63 17 94 94 Calm 29.91 1013 1 1 N/A
1:20 am 01:20 Partly Cloudy 64 18 63 17 94 94 VRB 1 2 29.91 1013 0 0 N/A
1:50 am 01:50 Mostly Cloudy 63 17 63 17 100 100 Calm 29.91 1013 5 8 N/A
2:20 am 02:20 Mostly Clear 61 16 61 16 100 100 E 3 6 29.91 1013 1 1 N/A
2:50 am 02:50 Mostly Cloudy 63 17 63 17 100 100 Calm 29.88 1012 4 7 N/A
3:20 am 03:20 Cloudy 63 17 63 17 100 100 VRB 2 4 29.88 1012 30 48 N/A
3:50 am 03:50 Mostly Cloudy 63 17 61 16 94 94 VRB 1 2 29.88 1012 4 6 N/A
4:20 am 04:20 Mostly Cloudy 63 17 61 16 94 94 E 3 6 29.88 1012 3 5 N/A
4:50 am 04:50 Mostly Cloudy 63 17 63 17 100 100 Calm 29.88 1012 3 4 N/A
5:20 am 05:20 Cloudy 63 17 63 17 100 100 E 1 2 29.91 1013 3 5 N/A
5:50 am 05:50 Cloudy 64 18 63 17 94 94 E 2 4 29.91 1013 6 9 N/A
6:20 am 06:20 Mostly Sunny 64 18 64 18 100 100 VRB 1 2 29.91 1013 7 11 N/A
6:50 am 06:50 Mostly Sunny 64 18 64 18 100 100 Calm 29.91 1013 7 11 N/A
7:20 am 07:20 Mostly Sunny 68 20 66 19 94 94 SSE 5 7 29.91 1013 7 11 N/A
7:50 am 07:50 Mostly Sunny 70 21 68 20 94 94 SSE 6 9 29.91 1013 7 11 N/A
8:20 am 08:20 Mostly Sunny 72 22 66 19 83 83 SSE 6 9 29.91 1013 7 11 N/A
8:50 am 08:50 Mostly Sunny 73 23 66 19 78 78 SSE 5 7 29.91 1013 7 11 N/A
9:20 am 09:20 Mostly Sunny 73 23 66 19 78 78 SSE 5 7 29.91 1013 7 11 N/A
9:50 am 09:50 Mostly Sunny 77 25 66 19 69 69 S 5 7 29.91 1013 7 11 N/A
10:20 am 10:20 Mostly Sunny 79 26 64 18 61 61 SSE 6 9 29.91 1013 7 11 N/A
10:50 am 10:50 Mostly Sunny 81 27 64 18 58 58 S 3 6 29.91 1013 7 11 N/A
11:20 am 11:20 Mostly Sunny 81 27 61 16 51 51 SW 6 9 29.94 1014 7 11 N/A
11:50 am 11:50 Mostly Sunny 82 28 61 16 48 48 SW 6 9 29.94 1014 30 48 N/A
12:20 pm 12:20 Mostly Sunny 84 29 61 16 45 45 VRB 5 7 29.94 1014 7 11 N/A
12:50 pm 12:50 Mostly Sunny 82 28 59 15 45 45 W 7 11 29.94 1014 7 11 N/A
1:20 pm 13:20 Mostly Sunny 84 29 57 14 40 40 WNW 7 11 29.94 1014 7 11 N/A
1:50 pm 13:50 Mostly Sunny 84 29 59 15 43 43 VRB 3 6 29.94 1014 7 11 N/A
2:20 pm 14:20 Mostly Sunny 82 28 59 15 45 45 WNW 9 15 29.94 1014 7 11 N/A
2:50 pm 14:50 Mostly Sunny 86 30 61 16 43 43 WNW 10 17 29.94 1014 7 11 N/A
3:20 pm 15:20 Partly Cloudy 82 28 63 17 51 51 WNW 14 22 29.94 1014 30 48 N/A
3:50 pm 15:50 Mostly Sunny 81 27 63 17 54 54 WNW 14 22 29.94 1014 7 11 N/A
4:20 pm 16:20 Mostly Sunny 79 26 63 17 58 58 NW 9 15 29.97 1015 7 11 N/A
4:50 pm 16:50 Mostly Sunny 79 26 61 16 54 54 NW 9 15 29.94 1014 7 11 N/A
5:20 pm 17:20 Partly Cloudy with Thunderstorms 79 26 63 17 58 58 NNW 8 13 29.97 1015 30 48 N/A
5:50 pm 17:50 Partly Cloudy 77 25 63 17 61 61 N 9 15 29.97 1015 30 48 N/A
6:20 pm 18:20 Partly Cloudy 77 25 63 17 61 61 NE 12 19 29.97 1015 30 48 N/A
6:50 pm 18:50 Mostly Sunny 75 24 64 18 69 69 NNE 9 15 29.97 1015 7 11 N/A
7:20 pm 19:20 Mostly Sunny 75 24 64 18 69 69 NNE 5 7 29.97 1015 7 11 N/A
7:50 pm 19:50 Mostly Sunny 73 23 64 18 74 74 ENE 7 11 29.97 1015 7 11 N/A
8:20 pm 20:20 Mostly Sunny 73 23 64 18 74 74 NE 7 11 29.97 1015 7 11 N/A
8:50 pm 20:50 Mostly Sunny 72 22 64 18 78 78 ENE 7 11 29.97 1015 7 11 N/A
9:20 pm 21:20 Mostly Sunny 72 22 63 17 73 73 NNE 7 11 29.97 1015 7 11 N/A
9:50 pm 21:50 Mostly Sunny 70 21 63 17 78 78 N 5 7 30.00 1016 7 11 N/A
10:20 pm 22:20 Mostly Cloudy 70 21 63 17 78 78 NE 3 6 30.00 1016 30 48 N/A
10:50 pm 22:50 Mostly Cloudy 68 20 61 16 78 78 NNE 5 7 30.00 1016 30 48 N/A
11:20 pm 23:20 Mostly Cloudy 68 20 61 16 78 78 N 3 6 30.00 1016 30 48 N/A
11:50 pm 23:50 Mostly Cloudy 68 20 61 16 78 78 NE 5 7 29.97 1015 30 48 N/A

Powered by AerisWeather